Location: Unspecified
(0.0000°N, 0.0000°E)
Time: 10:58:21
(UTC+02:00)

AO-40 - Visible Passes

Search period start: 25 July 2014 00:00
Search period end: 04 August 2014 00:00
Orbit: 1106 x 58714 km, 8.3° (Epoch: 22 July)

Date Brightness Start Highest point End Pass type
(mag) Time Alt. Az. Time Alt. Az. Time Alt. Az.
25 Jul ? 00:00:00 14° E 06:14:11 85° S 12:35:20 10° ENE visible
26 Jul ? 01:12:40 10° E 05:44:17 48° E 07:15:21 10° E visible
27 Jul ? 03:37:09 10° W 05:09:39 45° WSW 09:31:45 10° W visible
27 Jul ? 22:15:32 10° W 04:33:04 82° S 11:04:45 10° W visible
28 Jul ? 23:32:11 10° E 06:06:14 85° S 12:07:40 10° ENE visible
30 Jul ? 01:05:06 10° E 05:16:17 44° E 06:45:45 10° E visible
31 Jul ? 03:07:39 10° W 04:41:50 49° WSW 09:24:10 10° W visible
31 Jul ? 21:47:52 10° W 04:25:00 82° S 10:56:29 10° W visible
01 Aug ? 23:23:41 10° E 05:58:33 85° S 11:39:59 10° ENE visible
03 Aug ? 00:57:54 10° E 04:48:23 40° E 06:15:49 10° E visible
